Weather Roundup
Issued by NWS

Home | Current Version | Previous Version | Graphics & Text | Print | Product List | Glossary On
Versions: 1 2 3 4 5 6 7 8 9 10 11 12 13 14 15 16 17 18 19 20 21 22 23 24 25 26 27 28 29 30 31 32 33 34 35 36 37 38 39 40 41 42 43 44 45 46 47 48 49 50
000
NZUS93 KARX 011010
HRRWXR

CURRENT HOURLY OBSERVATIONS ACROSS
MUCH OF THE UPPER MISSISSIPPI VALLEY
NATIONAL WEATHER SERVICE LA CROSSE WI
500 AM CDT SAT NOV 01 2014


...SOUTHEAST MINNESOTA...


CITY           SKY/WX    TMP DP  RH WIND       PRES   REMARKS
ROCHESTER      CLEAR     19  16  88 S7        30.45S WCI  10
ROCHESTER/MAYO FAIR      24  18  76 CALM      30.46S
WINONA         CLEAR     23  21  93 CALM      30.49S
AUSTIN         PTCLDY    19  16  86 MISG      30.44S
ALBERT LEA     CLEAR     21  18  86 SE5       30.44S WCI  15
DODGE CENTER   PTCLDY    21  18  86 S3        30.44S
PRESTON        CLEAR     21  17  83 CALM      30.45S
OWATONNA       PTCLDY    21  16  79 SE5       30.43F WCI  15
FARIBAULT      PTCLDY    19  16  86 CALM      30.44F
$$

...ELSEWHERE IN MINNESOTA...


CITY           SKY/WX    TMP DP  RH WIND       PRES   REMARKS
MINNEAPOLIS    CLEAR     24  17  74 SE7       30.46S WCI  16
INTNL FALLS    MOCLDY    21  16  81 SE6       30.34F WCI  13
DULUTH         CLEAR     22  13  68 S3        30.41R
RED WING       CLEAR     19  18  93 CALM      30.47R
REDWOOD FALLS  PTCLDY    20  14  77 S7        30.40F WCI  11
MANKATO        PTCLDY    23  12  63 S6        30.44R WCI  16
WORTHINGTON    PTCLDY    25  18  74 S10       30.39S WCI  15
FAIRMONT       PTCLDY    19  10  68 S8        30.42F WCI   9
$$

...SOUTHWEST WISCONSIN...


CITY           SKY/WX    TMP DP  RH WIND       PRES   REMARKS
LA CROSSE      CLEAR     25  19  78 E3        30.49S
PRAIRIE DU CHI CLEAR     23  19  85 CALM      30.49S
BOSCOBEL       CLEAR     19  15  84 CALM      30.50R
LONE ROCK      CLEAR     25  17  72 W7        30.48R WCI  17
PLATTEVILLE    CLEAR     22  18  83 N3        30.47S
FORT MC COY    CLEAR     15  13  92 CALM      30.49R
CAMP DOUGLAS   CLEAR     14  14  98 W5        30.47S WCI   6
VIROQUA        FAIR      22  20  92 CALM      30.45S
WIS DELLS      CLEAR     21  17  85 CALM      30.46R
$$

...ELSEWHERE IN WISCONSIN...


CITY           SKY/WX    TMP DP  RH WIND       PRES   REMARKS
MILWAUKEE      CLOUDY    35  22  58 NW9G18    30.40R WCI  28
MADISON        CLEAR     24  17  74 NW6       30.45R WCI  17
GREEN BAY      CLOUDY    31  21  66 NW12      30.45R WCI  22
EAU CLAIRE     FOG       18  15  88 CALM      30.47S VSB 1
BLACK RVR FLS  FAIR      12   9  89 CALM      30.48S
MEDFORD        CLEAR     18  17  94 CALM      30.44S
WAUSAU         CLEAR     23  19  85 N3        30.45R
WIS RAPIDS     CLEAR     20  16  84 CALM      30.48R
MARSHFIELD     CLEAR     23  18  81 CALM      30.45S
RICE LAKE      CLEAR     19  17  93 CALM      30.48R
$$

...NORTHEAST IOWA...


CITY           SKY/WX    TMP DP  RH WIND       PRES   REMARKS
DECORAH        CLEAR     19  18  93 CALM      30.46S
MASON CITY     CLEAR     16  12  84 SE5       30.45F WCI   9
CHARLES CITY   PTCLDY    21  18  86 NE3       30.46F
OELWEIN        CLEAR     21  18  86 NE6       30.47S WCI  14
$$

...ELSEWHERE IN IOWA...


CITY           SKY/WX    TMP DP  RH WIND       PRES   REMARKS
DES MOINES     CLEAR     29  19  66 E3        30.46F
IOWA CITY      CLEAR     27  19  72 N6        30.49R WCI  20
FORT DODGE     PTCLDY    19  10  68 E3        30.45S
$$

...NORTHERN ILLINOIS...


CITY           SKY/WX    TMP DP  RH WIND       PRES   REMARKS
CHICAGO-OHARE  CLOUDY    35  23  61 N15       30.36R WCI  25
CHICAGO-MIDWAY CLOUDY    40  27  59 N13       30.35R WCI  32
MOLINE         CLEAR     28  19  69 N5        30.47R WCI  23
ROCKFORD       CLOUDY    30  19  63 N9        30.44R WCI  22
PEORIA         CLEAR     30  19  63 N7        30.43R WCI  23
$$

NOTE: "FAIR" INDICATES FEW OR NO CLOUDS BELOW 12,000 FEET WITH NO
SIGNIFICANT WEATHER AND/OR OBSTRUCTIONS TO VISIBILITY. WIND
SPEEDS ARE IN MILES-PER-HOUR.



USA.gov is the U.S. government's official web portal to all federal, state and local government web resources and services.